St. Paul Lake Elmo, MN

3:59 PM CDT on September 20, 2017 (GMT -0500)
St. Paul Lake Elmo

Weather History for K21D - April, 2014

Change the Weather History Date:

Sunday, April 20, 2014

  Actual Average (KSTP) Record (KSTP)
Temperature  
Mean Temperature 58 °F -  
Max Temperature 73 °F 58 °F 73 °F (2014)
Min Temperature 44 °F 37 °F 21 °F (2013)
Degree Days  
Heating Degree Days 6    
Growing Degree Days 8 (Base 50)    
Moisture  
Dew Point 49 °F    
Average Humidity 71    
Maximum Humidity 100    
Minimum Humidity 27    
Precipitation  
Precipitation 0.08 in - - ()
Sea Level Pressure  
Sea Level Pressure 30.01 in    
Wind  
Wind Speed 2 mph (ESE)    
Max Wind Speed 8 mph    
Max Gust Speed -    
Visibility 7 miles    
Events Fog , Rain , Thunderstorm    
Averages and records for this station are not official NWS values.
T = Trace of Precipitation, MM = Missing Value Source: NWS Daily Summary

Daily Weather History Graph

Daily Weather History Graph

Search for Another Location

Airport or City:

Trip Planner

Search our weather history database for the weather conditions in past years. The results will help you decide how hot, cold, wet, or windy it might be!

Date:

Astronomy

Apr. 20, 2014 Rise Set
Actual Time 6:18 AM CDT 8:03 PM CDT
Civil Twilight 5:47 AM CDT 8:34 PM CDT
Nautical Twilight 5:09 AM CDT 9:12 PM CDT
Astronomical Twilight 4:28 AM CDT 9:54 PM CDT
Moon 12:48 AM CDT 10:34 AM CDT
Length of Visible Light 14h 47m
Length of Day
13h 45m
Waning Gibbous, 68% of the Moon is Illuminated
Apr 20
Waning Gibbous
Apr 22
Last Quarter
Apr 29
New
May 6
First Quarter
May 14
Full

Hourly Weather History & Observations

Time (CDT) Temp. Windchill Dew Point Humidity Pressure Visibility Wind Dir Wind Speed Gust Speed Precip Events Conditions
12:11 AM 51.8 °F - 51.8 °F 100% 30.03 in 0.5 mi Calm Calm - 0.05 in Rain Heavy Rain
12:31 AM 53.6 °F - 53.6 °F 100% 30.02 in 0.8 mi NW 3.5 mph - 0.07 in Rain Light Rain
12:50 AM 51.8 °F - 51.8 °F 100% 30.03 in 0.2 mi South 3.5 mph - 0.08 in Rain Light Rain
1:11 AM 51.8 °F - 51.8 °F 100% 30.02 in 0.2 mi Calm Calm - N/A Fog Fog
1:31 AM 53.6 °F - 51.8 °F 94% 30.02 in 0.2 mi Calm Calm - N/A Fog Fog
1:50 AM 51.8 °F - 51.8 °F 100% 30.04 in 0.2 mi West 3.5 mph - 0.01 in Rain Light Rain
2:11 AM 51.8 °F - 51.8 °F 100% 30.03 in 0.8 mi Calm Calm - 0.01 in Rain Light Rain
2:31 AM 51.8 °F - 51.8 °F 100% 30.03 in 0.5 mi Calm Calm - 0.03 in Rain Rain
2:51 AM 51.8 °F - 51.8 °F 100% 30.02 in 3.0 mi Calm Calm - 0.07 in Rain Light Rain
3:11 AM 51.8 °F - 51.8 °F 100% 30.02 in 7.0 mi SE 3.5 mph - N/A   Overcast
3:31 AM 51.8 °F - 50.0 °F 94% 30.02 in 7.0 mi Calm Calm - N/A Rain Rain
3:51 AM 51.8 °F - 50.0 °F 94% 30.02 in 5.0 mi Calm Calm - N/A   Overcast
4:11 AM 50.0 °F - 50.0 °F 100% 30.02 in 5.0 mi Calm Calm - N/A   Overcast
4:31 AM 50.0 °F - 50.0 °F 100% 30.02 in 5.0 mi Calm Calm - N/A   Overcast
4:51 AM 50.0 °F - 50.0 °F 100% 30.02 in 0.5 mi Calm Calm - N/A Fog Fog
5:11 AM 48.2 °F - 48.2 °F 100% 30.03 in 0.2 mi Calm Calm - N/A Fog Fog
5:31 AM 48.2 °F - 48.2 °F 100% 30.03 in 0.5 mi Calm Calm - N/A Fog Fog
5:51 AM 46.4 °F - 46.4 °F 100% 30.04 in 0.2 mi Calm Calm - N/A Fog Fog
6:11 AM 46.4 °F - 46.4 °F 100% 30.04 in 0.2 mi Calm Calm - N/A Fog Fog
6:31 AM 44.6 °F - 44.6 °F 100% 30.05 in 0.2 mi Calm Calm - N/A Fog Fog
6:51 AM 44.6 °F - 44.6 °F 100% 30.05 in 0.2 mi Calm Calm - N/A Fog Fog
7:11 AM 46.4 °F 43.5 °F 46.4 °F 100% 30.06 in 0.2 mi North 5.8 mph - N/A Fog Fog
7:30 AM 50.0 °F - 48.2 °F 94% 30.06 in 5.0 mi Calm Calm - N/A   Scattered Clouds
7:51 AM 50.0 °F - 50.0 °F 100% 30.06 in 10.0 mi North 5.8 mph - N/A   Clear
8:11 AM 51.8 °F - 50.0 °F 94% 30.05 in 10.0 mi Calm Calm - N/A   Clear
8:30 AM 53.6 °F - 50.0 °F 88% 30.05 in 7.0 mi Calm Calm - N/A   Clear
8:51 AM 55.4 °F - 50.0 °F 82% 30.06 in 10.0 mi East 3.5 mph - N/A   Clear
9:11 AM 57.2 °F - 48.2 °F 72% 30.06 in 10.0 mi NE 3.5 mph - N/A   Clear
9:30 AM 59.0 °F - 46.4 °F 63% 30.06 in 10.0 mi NE 3.5 mph - N/A   Clear
9:51 AM 59.0 °F - 48.2 °F 67% 30.05 in 10.0 mi ENE 4.6 mph - N/A   Clear
10:11 AM 60.8 °F - 46.4 °F 59% 30.05 in 10.0 mi NE 3.5 mph - N/A   Clear
10:30 AM 60.8 °F - 46.4 °F 59% 30.05 in 10.0 mi Calm Calm - N/A   Clear
10:51 AM 62.6 °F - 46.4 °F 55% 30.05 in 10.0 mi NE 3.5 mph - N/A   Clear
11:11 AM 62.6 °F - 44.6 °F 52% 30.05 in 10.0 mi Calm Calm - N/A   Clear
11:31 AM 64.4 °F - 42.8 °F 45% 30.04 in 10.0 mi East 5.8 mph - N/A   Clear
11:51 AM 64.4 °F - 44.6 °F 49% 30.04 in 10.0 mi SE 4.6 mph - N/A   Clear
12:11 PM 68.0 °F - 44.6 °F 43% 30.04 in 10.0 mi South 5.8 mph - N/A   Clear
12:31 PM 68.0 °F - 46.4 °F 46% 30.03 in 10.0 mi SSE 3.5 mph - N/A   Clear
1:11 PM 69.8 °F - 46.4 °F 43% 30.02 in 10.0 mi East 3.5 mph - N/A   Clear
1:31 PM 69.8 °F - 48.2 °F 46% 30.01 in 10.0 mi Calm Calm - N/A   Clear
1:51 PM 71.6 °F - 46.4 °F 41% 30.00 in 10.0 mi ENE 6.9 mph - N/A   Clear
2:10 PM 69.8 °F - 46.4 °F 43% 30.00 in 7.0 mi West 4.6 mph - N/A   Scattered Clouds
2:31 PM 71.6 °F - 44.6 °F 38% 30.00 in 10.0 mi SSE 3.5 mph - N/A   Mostly Cloudy
2:51 PM 71.6 °F - 41.0 °F 33% 29.99 in 10.0 mi Calm Calm - N/A   Mostly Cloudy
3:10 PM 71.6 °F - 41.0 °F 33% 29.99 in 10.0 mi Calm Calm - N/A   Scattered Clouds
3:31 PM 73.4 °F - 41.0 °F 31% 29.99 in 10.0 mi South 5.8 mph - N/A   Clear
3:51 PM 73.4 °F - 37.4 °F 27% 29.98 in 10.0 mi Calm Calm - N/A   Clear
4:10 PM 73.4 °F - 41.0 °F 31% 29.97 in 10.0 mi East 5.8 mph - N/A   Clear
4:31 PM 73.4 °F - 41.0 °F 31% 29.97 in 10.0 mi Calm Calm - N/A   Clear
4:51 PM 73.4 °F - 42.8 °F 33% 29.97 in 10.0 mi East 3.5 mph - N/A   Clear
5:11 PM 73.4 °F - 42.8 °F 33% 29.97 in 10.0 mi ESE 3.5 mph - N/A   Clear
5:31 PM 71.6 °F - 50.0 °F 46% 29.97 in 10.0 mi South 6.9 mph - N/A   Scattered Clouds
5:51 PM 71.6 °F - 50.0 °F 46% 29.97 in 10.0 mi SSE 3.5 mph - N/A   Mostly Cloudy
6:11 PM 71.6 °F - 46.4 °F 41% 29.96 in 10.0 mi Calm Calm - N/A   Scattered Clouds
6:31 PM 71.6 °F - 50.0 °F 46% 29.96 in 10.0 mi SE 5.8 mph - N/A   Clear
6:51 PM 69.8 °F - 51.8 °F 53% 29.96 in 10.0 mi South 8.1 mph - N/A   Clear
7:11 PM 68.0 °F - 51.8 °F 56% 29.95 in 10.0 mi SSE 5.8 mph - N/A   Clear
7:31 PM 68.0 °F - 51.8 °F 56% 29.95 in 10.0 mi South 4.6 mph - N/A   Clear
7:51 PM 64.4 °F - 51.8 °F 64% 29.95 in 10.0 mi SE 3.5 mph - N/A   Clear
8:11 PM 64.4 °F - 51.8 °F 64% 29.95 in 10.0 mi SE 3.5 mph - N/A   Clear
8:31 PM 62.6 °F - 51.8 °F 68% 29.96 in 10.0 mi Calm Calm - N/A   Clear
8:51 PM 60.8 °F - 51.8 °F 72% 29.97 in 10.0 mi SE 4.6 mph - N/A   Mostly Cloudy
9:11 PM 62.6 °F - 53.6 °F 72% 29.97 in 10.0 mi SSE 3.5 mph - N/A Thunderstorm Overcast
9:31 PM 60.8 °F - 53.6 °F 77% 29.97 in 10.0 mi Calm Calm - N/A   Overcast
9:51 PM 59.0 °F - 53.6 °F 82% 29.96 in 10.0 mi Calm Calm - N/A   Overcast
10:11 PM 60.8 °F - 53.6 °F 77% 29.96 in 10.0 mi ENE 3.5 mph - N/A   Mostly Cloudy
10:31 PM 57.2 °F - 51.8 °F 82% 29.97 in 10.0 mi Calm Calm - N/A   Overcast
10:51 PM 59.0 °F - 53.6 °F 82% 29.97 in 10.0 mi Calm Calm - N/A   Overcast
11:11 PM 57.2 °F - 53.6 °F 88% 29.94 in 10.0 mi East 4.6 mph - N/A   Overcast
11:31 PM 59.0 °F - 53.6 °F 82% 29.95 in 10.0 mi Calm Calm - N/A   Scattered Clouds
11:51 PM 55.4 °F - 53.6 °F 94% 29.95 in 10.0 mi Calm Calm - N/A   Scattered Clouds